Vertical_Velocity
0 1 1 3 3 1 -2 -2 -2 -0 1 1 0 0 0 1 2 2 2 2 2 2 2 2 1 1 1 1 1 1 1 0 -0 -1 -2 -2 -2 -1 -0 -0 -0 0 1 0 -0 -1 -2 -2 -1 -0 1 1 1 1 1 1 0 -0 -1 -1 -0 -0 -0 -0 0 0 0 -0 -0 -1 -1 -1 -1 -1 -0 -0 -0 -0 -0 0 0 0 1 1 1 1 1 1 1 1 1 1 1 1 1 1 1 0 0 0 0 0 0
0 0 1 3 3 2 -1 -2 -2 -1 1 1 1 1 1 1 2 2 1 3 2 2 4 2 1 1 1 2 1 1 1 0 -0 -1 -2 -2 -2 -1 -0 -0 -0 -0 0 0 -0 -1 -2 -2 -1 -0 0 1 1 1 1 0 0 -0 -1 -1 -1 -0 -0 -0 -0 0 0 0 -0 -0 -1 -1 -1 -1 -1 -0 -0 -0 -0 0 0 0 1 1 1 1 1 1 1 1 1 1 1 1 1 1 1 0 0 0 0 0 0
0 0 1 2 3 3 -0 -2 -2 -1 0 1 1 0 1 1 2 2 1 3 3 2 4 3 1 1 2 2 2 1 1 0 -0 -1 -2 -2 -2 -1 -1 -0 -0 -0 1 1 0 -0 -1 -1 -1 -0 0 1 1 1 1 1 0 -0 -0 -1 -1 -1 -0 -0 -0 -0 -0 -0 -0 -0 -1 -1 -1 -1 -1 -0 -0 -0 -0 0 0 1 1 1 1 1 1 1 1 1 1 1 1 1 1 1 0 0 0 0 0 0 0
0 1 1 2 2 3 2 -1 -2 -2 -0 0 1 0 1 1 2 2 1 2 3 3 4 3 1 1 2 2 2 1 1 0 -0 -1 -1 -2 -2 -1 -1 -1 -1 -0 1 1 0 -0 -1 -1 -0 0 1 1 1 1 1 1 1 0 -0 -0 -0 -1 -1 -1 -1 -0 -0 -0 -0 -0 -1 -1 -1 -1 -1 -0 -0 -0 -0 0 0 1 1 1 1 1 1 1 1 1 1 1 1 1 1 1 0 0 0 0 0 0 0
0 0 1 1 2 3 3 1 -2 -3 -1 -0 0 0 -0 1 2 2 1 2 2 3 4 4 2 0 2 2 2 1 1 0 -0 -0 -1 -1 -1 -1 -1 -1 -1 -0 0 1 0 -0 -1 -1 -0 0 1 1 2 2 1 1 1 1 0 -0 -0 -1 -1 -1 -1 -1 -1 -1 -1 -1 -1 -1 -1 -1 -1 -0 -0 -0 -0 0 0 0 1 1 1 1 1 1 1 1 1 1 1 1 0 0 0 0 0 0 0 0 0
-0 0 0 1 1 2 3 2 0 -1 -2 -0 0 -0 -0 0 1 2 1 2 3 3 4 4 3 1 1 2 2 1 1 0 -0 -0 -0 -1 -1 -1 -1 -1 -1 -0 0 0 0 -0 -1 -1 -1 -0 1 1 2 2 2 1 1 1 0 -0 -0 -0 -1 -1 -1 -1 -1 -1 -1 -1 -1 -1 -1 -1 -1 -0 -0 -0 -0 -0 0 0 0 0 0 0 0 0 0 0 0 0 0 0 0 0 0 0 0 0 0 0 -0
-0 -0 -0 0 1 1 2 3 2 0 -1 -0 -0 0 0 0 1 1 1 1 2 3 4 4 3 1 0 2 2 2 1 0 -0 -0 -0 -0 -1 -1 -1 -1 -1 -0 0 0 0 -0 -1 -1 -1 -1 0 1 1 1 1 1 1 1 0 0 -0 -0 -1 -1 -1 -1 -1 -1 -1 -1 -1 -1 -1 -1 -1 -0 -0 -0 -0 -0 0 0 0 0 0 0 0 0 0 0 -0 0 0 0 0 0 0 0 -0 -0 -0 -0 -0
-0 -0 -0 0 0 1 1 2 2 1 0 -0 -0 0 0 1 1 1 1 1 1 3 4 4 3 2 0 1 2 2 1 0 -0 -0 -0 -0 -0 -1 -1 -1 -1 -0 0 1 0 -0 -1 -2 -2 -1 -0 0 1 1 1 1 1 1 0 -0 -0 -0 -1 -1 -1 -1 -1 -1 -1 -1 -1 -1 -1 -1 -1 -0 -0 -0 -0 -0 -0 -0 0 0 0 -0 -0 -0 -0 -0 -0 -0 -0 -0 -0 -0 -0 -0 -0 -0 -0 -0 -0
-0 -0 -0 -0 0 0 0 1 1 1 1 0 -0 -0 0 1 2 2 2 2 1 2 2 3 3 2 1 1 2 2 1 0 -0 -1 -0 0 -0 -1 -1 -1 -1 -0 0 1 1 0 -1 -1 -2 -1 -1 0 1 1 1 1 1 1 0 -0 -0 -1 -1 -1 -1 -1 -1 -1 -1 -1 -1 -1 -1 -1 -1 -1 -1 -1 -1 -0 -0 -0 -0 -0 -0 -0 -0 -0 -0 -0 -0 -0 -0 -0 -0 -0 -0 -0 -0 -0 -0 -0 -1
-0 -0 -0 -0 -0 0 0 0 1 1 1 0 -0 -0 0 1 2 2 2 2 2 2 2 2 2 1 1 2 2 2 1 0 -0 -1 -0 0 -0 -1 -1 -1 -1 -0 0 1 1 1 -0 -1 -1 -1 -1 0 1 1 1 1 1 1 0 -0 -0 -1 -1 -1 -1 -1 -1 -1 -1 -1 -1 -1 -1 -1 -1 -1 -1 -1 -1 -1 -1 -1 -0 -0 -0 -0 -0 -1 -1 -1 -1 -0 -0 -0 -0 -0 -0 -0 -0 -1 -1 -1 -1
-0 0 -0 -0 -0 -0 1 1 1 1 0 -0 -0 -0 -0 1 2 2 2 1 2 2 2 2 2 2 2 2 2 2 1 0 -0 -0 -0 0 -0 -0 -1 -1 -1 -0 0 1 1 1 -0 -1 -1 -1 -1 0 1 1 1 1 1 0 0 -0 -0 -1 -1 -1 -1 -1 -1 -0 -0 -0 -0 -0 -1 -1 -1 -1 -1 -1 -1 -1 -1 -1 -1 -1 -1 -1 -1 -1 -1 -1 -1 -1 -1 -1 -0 -1 -1 -1 -1 -1 -1 -1 -1
-1 -0 0 -0 -1 -0 0 1 1 1 -0 -0 -1 -0 -0 1 1 2 2 1 1 2 2 2 2 1 1 2 2 2 2 1 0 -0 -0 -0 -0 -0 -1 -1 -1 -0 0 1 1 1 0 -0 -1 -1 -1 -0 0 1 1 1 1 0 0 -0 -1 -1 -1 -1 -1 -1 -0 -0 -0 -0 -0 -0 -0 -1 -1 -1 -1 -1 -1 -1 -1 -1 -1 -1 -1 -1 -1 -1 -1 -1 -1 -1 -1 -1 -1 -1 -1 -1 -1 -1 -1 -1 -1
-1 -1 -0 -0 -1 -1 -0 1 2 1 0 -1 -1 -1 -0 0 1 2 2 2 2 2 2 2 1 1 1 2 2 2 2 1 0 -0 -0 -0 -0 -0 -1 -1 -1 -0 -0 0 1 1 1 -0 -1 -1 -1 -0 0 1 1 1 1 0 0 -0 -0 -1 -1 -1 -1 -1 -1 -0 -0 -1 -1 -1 -1 -1 -1 -1 -2 -2 -2 -1 -1 -1 -1 -1 -1 -1 -1 -1 -1 -1 -1 -1 -1 -1 -1 -1 -1 -1 -1 -1 -1 -1 -1
-1 -1 -1 -1 -1 -1 -1 1 2 2 1 -1 -1 -1 -0 0 1 1 2 2 2 2 2 2 2 1 1 2 2 2 2 1 1 0 -0 -0 -0 -1 -1 -1 -1 -1 -0 0 1 1 1 -0 -1 -1 -1 -0 0 1 1 1 1 1 0 0 -0 -0 -1 -1 -1 -1 -1 -1 -1 -1 -1 -1 -1 -1 -1 -1 -1 -2 -2 -2 -2 -1 -1 -1 -1 -1 -1 -1 -1 -1 -1 -1 -1 -1 -1 -1 -1 -1 -1 -1 -1 -1 -1
-0 -0 -1 -1 -1 -1 -1 0 1 1 1 -0 -1 -1 -0 0 1 1 2 2 2 2 2 2 2 2 2 2 2 3 2 1 1 0 -0 -0 -0 -1 -1 -1 -1 -1 -0 -0 0 1 1 0 -1 -1 -1 0 1 1 1 1 1 1 1 0 -0 -0 -1 -1 -1 -1 -1 -0 -0 -0 -1 -1 -1 -1 -1 -1 -1 -2 -2 -2 -2 -2 -1 -1 -1 -1 -1 -1 -1 -1 -1 -1 -1 -1 -1 -1 -1 -1 -1 -1 -1 -1 -1
-0 -0 -0 -1 -1 -1 -1 -0 1 1 0 -0 -0 -1 -0 0 1 1 1 1 1 2 2 2 2 2 2 2 2 2 2 1 1 0 -0 -0 -0 -1 -1 -1 -1 -1 -1 -0 0 1 1 0 -1 -1 -1 0 1 1 1 1 1 1 1 1 0 -0 -0 -1 -1 -1 -0 -0 -0 -0 -0 -1 -1 -1 -1 -1 -1 -1 -2 -2 -2 -2 -2 -2 -2 -1 -1 -1 -1 -1 -1 -1 -1 -1 -1 -1 -1 -1 -1 -1 -1 -1 -1
-1 -1 -1 -1 -1 -1 -1 -0 0 0 0 -0 -0 -0 0 1 1 1 1 1 1 1 2 2 2 2 2 2 2 2 2 2 1 0 -0 -0 -0 -1 -1 -1 -1 -1 -1 -0 0 0 1 0 -0 -1 -1 -0 0 1 1 1 1 1 1 1 1 0 -0 -0 -1 -1 -0 -0 0 0 0 -0 -1 -1 -1 -1 -1 -1 -1 -2 -2 -2 -2 -2 -2 -2 -2 -2 -1 -1 -1 -1 -1 -1 -1 -1 -1 -1 -1 -1 -1 -1 -1
-0 -1 -1 -1 -1 -1 -1 -0 -0 -0 -0 -0 -0 0 1 1 1 1 1 1 1 1 1 2 2 2 2 2 2 2 2 2 1 1 0 -0 -0 -0 -1 -1 -1 -1 -1 -0 -0 0 1 1 -0 -1 -1 -1 0 1 1 1 1 1 1 1 1 0 0 -0 -0 -1 -0 -0 0 0 0 0 -0 -1 -1 -1 -1 -1 -1 -1 -1 -2 -2 -2 -2 -2 -2 -2 -2 -1 -1 -1 -1 -1 -1 -1 -1 -1 -1 -1 -1 -1 -1
0 -0 -0 -1 -1 -1 -1 -1 -0 -0 -0 -0 0 0 1 1 1 1 1 1 1 1 1 1 1 1 2 2 2 2 2 2 2 1 0 -0 -0 -0 -0 -1 -1 -1 -1 -1 -0 0 1 1 -0 -1 -1 -1 -0 0 1 1 1 1 1 1 1 1 0 -0 -0 -1 -1 -0 -0 0 0 0 0 -0 -1 -1 -1 -1 -1 -1 -1 -1 -1 -1 -1 -1 -2 -1 -1 -1 -1 -1 -1 -1 -1 -1 -1 -1 -1 -1 -1 -1 -1
1 1 0 -0 -1 -1 -1 -1 -1 -1 -1 -0 -0 0 0 1 1 1 1 1 1 1 1 1 1 1 1 1 2 2 2 2 2 1 0 -0 -0 -0 -0 -1 -1 -1 -1 -1 -0 0 0 0 -0 -1 -1 -1 -0 -0 0 0 1 1 1 1 1 1 0 0 -0 -0 -1 -1 -1 -0 0 0 0 0 -0 -1 -1 -1 -1 -1 -1 -1 -1 -1 -1 -1 -1 -1 -1 -1 -1 -1 -1 -0 -0 -0 -0 -0 -0 -0 -0 -0 -0
1 1 1 0 -0 -1 -1 -1 -1 -1 -0 -0 -0 -0 -0 0 1 1 1 1 1 1 1 1 1 0 0 1 1 2 2 3 2 2 1 -0 -0 -0 -0 -1 -1 -1 -1 -1 -0 -0 0 0 -0 -1 -1 -0 -0 -0 -0 0 0 1 1 1 1 1 1 0 0 -0 -0 -1 -1 -1 -0 0 0 0 0 -0 -0 -1 -1 -1 -1 -1 -1 -1 -0 -0 -0 -0 -0 -0 -0 -0 -0 -0 -0 -0 -0 -0 0 0 0 -0 -0
1 1 1 0 -0 -0 -1 -1 -1 -1 -0 -0 -1 -1 -1 -0 0 0 1 1 1 1 1 1 0 0 0 1 1 2 3 3 3 2 1 -0 -1 -1 -0 -1 -1 -1 -1 -1 -0 -0 0 -0 -0 -1 -0 -0 0 0 -0 -0 0 1 1 1 1 1 1 1 0 0 -0 -0 -1 -1 -1 -0 0 0 1 0 0 -0 -0 -0 -1 -1 -0 -0 -0 0 0 0 0 0 -0 -0 -0 0 0 0 0 0 0 0 0 0 0
0 1 0 0 -0 -0 -0 -1 -1 -0 -0 -1 -1 -1 -1 -0 0 0 0 1 1 1 0 0 0 0 0 1 1 2 3 3 3 2 1 -0 -1 -1 -1 -1 -1 -1 -1 -1 -0 -0 -0 -0 -0 -0 -0 0 0 0 0 -0 -0 0 1 1 1 1 1 1 1 0 0 -0 -0 -1 -1 -1 -0 0 0 0 0 0 0 0 0 0 0 0 0 0 1 1 0 0 0 0 0 0 0 0 1 1 1 1 1 1 1
0 0 0 0 -0 -0 -0 -0 -0 -0 -0 -0 -1 -2 -1 -0 1 0 0 1 1 0 0 0 0 0 0 1 1 2 3 3 3 2 1 0 -1 -1 -1 -1 -1 -1 -1 -1 -1 -0 -0 -0 -0 -0 -0 0 0 0 0 -0 -0 -0 0 0 1 1 1 1 1 1 1 1 0 -0 -1 -1 -1 -0 -0 -0 0 0 1 1 1 1 1 1 1 1 1 1 1 0 0 0 0 0 1 1 1 1 1 1 1 1 1
0 1 1 0 -0 -0 -0 0 -0 -0 -0 -0 -1 -1 -1 -0 0 0 0 0 0 0 0 0 0 0 1 1 2 2 2 3 2 2 1 0 -0 -1 -1 -1 -1 -1 -1 -1 -1 -1 -1 -1 -0 -0 -0 0 0 1 0 -0 -0 -0 -0 0 1 1 1 1 1 1 1 1 1 1 0 -0 -0 -1 -1 -0 -0 0 1 1 1 1 1 1 1 1 1 1 1 1 1 1 1 1 1 1 1 1 1 1 1 1 1
1 1 1 0 0 -0 0 0 0 0 0 -0 -1 -1 -1 -0 -0 0 0 0 0 0 0 0 0 1 1 1 1 2 2 2 2 2 1 0 0 -0 -0 -0 -0 -1 -1 -1 -1 -1 -1 -1 -1 -0 -0 0 0 0 0 -0 -0 -0 -0 0 0 1 1 1 1 1 1 1 1 1 1 1 0 -0 -1 -0 -0 -0 1 1 1 1 1 1 1 1 1 1 1 1 1 1 0 1 1 1 1 1 1 1 1 1 0
1 1 1 1 1 0 0 0 0 0 0 -0 -1 -1 -0 -0 -0 -0 0 0 0 0 0 0 0 0 0 1 1 1 1 2 2 1 1 1 0 0 0 0 -0 -1 -1 -1 -1 -1 -1 -1 -1 -0 -0 -0 0 0 0 0 0 -0 -0 0 1 1 1 1 1 1 1 1 1 1 1 1 1 0 -0 0 0 0 1 1 1 1 1 1 1 1 1 1 1 1 0 0 0 0 0 0 0 0 0 0 0 0 0
1 0 0 1 1 1 0 0 0 0 0 0 -0 -0 -0 -0 -0 -0 0 0 0 0 1 1 0 0 0 0 0 1 1 1 1 1 1 1 1 1 1 1 -0 -1 -1 -1 -1 -1 -1 -1 -1 -1 -0 -0 -0 0 0 0 0 0 0 1 1 1 1 1 1 1 1 1 1 1 1 1 1 1 1 1 1 1 1 1 1 1 1 1 1 0 0 1 1 0 0 0 0 0 -0 -0 -0 -0 -0 -0 -0 -0 -0
1 -0 -0 1 1 1 1 0 -0 -0 0 1 1 0 -0 -0 -0 -0 -0 -0 0 0 0 1 0 -0 -0 0 0 0 1 1 1 1 1 1 1 1 1 1 0 -0 -1 -1 -1 -1 -1 -1 -1 -1 -1 -0 -0 -0 0 0 1 1 1 1 1 1 1 1 0 0 0 0 0 0 0 1 1 1 1 2 2 1 1 1 1 0 0 0 0 0 0 0 0 0 0 0 0 -0 -0 -0 -0 -0 -0 -0 -0 -0 -0
0 -0 -0 0 1 1 1 0 -0 -1 -1 1 1 0 -1 -1 -0 -0 -0 -0 0 0 0 0 0 0 -0 -0 0 0 0 1 1 1 1 1 1 1 2 1 0 -0 -0 -0 -0 -1 -1 -1 -1 -1 -0 -0 -0 0 0 0 1 1 1 1 1 1 1 1 1 0 0 0 0 0 0 1 1 1 2 2 2 2 1 1 0 0 0 0 -0 -0 0 0 0 0 0 0 -0 -0 0 0 0 -0 0 0 0 0 0
1 -0 -0 -0 0 1 1 1 -0 -1 -2 -0 0 0 -1 -1 -1 -1 -0 -0 0 1 1 0 0 0 -0 -0 0 0 0 1 1 1 1 1 1 2 2 1 0 0 0 0 -0 -0 -0 -0 -0 -0 -0 -0 -0 0 0 1 1 1 1 1 1 1 1 1 1 1 0 0 0 0 0 0 1 1 2 2 2 2 1 1 1 1 1 1 1 0 0 0 0 0 0 0 0 -0 -0 -0 0 0 0 1 1 1 0
1 1 -0 -0 -0 0 1 1 1 -0 -1 -1 -1 -0 -1 -1 -1 -1 -0 0 0 0 0 0 0 0 -0 0 0 0 1 1 1 1 1 1 1 1 1 1 0 0 0 0 -0 -0 -0 -0 -0 -0 -0 -0 0 0 0 1 1 1 1 0 0 0 0 1 1 1 0 0 -0 -0 0 1 1 1 1 2 2 2 1 1 1 1 1 1 1 1 1 1 1 1 1 0 0 0 0 0 0 0 0 1 0 0 0
2 1 0 -1 -1 -0 1 1 1 0 -1 -1 -1 -1 -0 -0 -0 -0 -0 0 0 0 1 1 0 0 0 0 0 0 1 1 1 1 1 1 1 1 1 1 0 0 0 -0 -0 -1 -0 -0 -0 -0 -0 0 0 0 0 1 1 0 0 0 0 0 0 1 1 1 0 0 0 0 0 1 1 1 1 1 1 1 1 1 1 1 1 1 1 1 1 1 1 1 1 1 0 0 0 0 0 0 0 0 0 0 -0
3 2 1 -0 -1 -0 1 1 1 0 -0 -1 -1 -1 -0 -0 -0 -0 -0 0 1 1 1 1 1 1 0 0 0 0 1 0 1 1 1 1 1 1 1 0 -0 -0 0 -0 -1 -1 -1 -0 -0 -0 -0 0 0 0 0 0 0 0 0 0 0 1 1 1 1 1 0 0 0 0 1 1 1 1 1 1 1 1 1 1 1 0 0 0 0 0 0 0 0 0 0 0 0 0 0 0 0 0 0 -0 -0 -0 -0
3 2 1 0 -0 -0 0 0 0 0 0 -0 -1 -1 -0 -0 0 0 0 0 1 1 1 1 1 1 1 1 1 0 0 0 0 1 1 1 1 1 1 -0 -0 -0 0 -0 -1 -1 -1 -1 -1 -0 0 0 0 0 0 0 0 0 0 1 1 1 1 1 1 1 1 1 0 0 1 1 1 1 1 1 0 0 0 0 0 0 -0 0 0 0 0 0 0 0 0 0 0 0 0 0 0 0 0 0 -0 -0 -0
3 2 1 1 0 -0 -0 -0 -0 0 0 -0 -1 -1 -0 0 0 0 0 0 0 1 1 1 1 1 0 1 0 0 0 0 1 1 1 1 1 0 0 0 -0 0 0 -0 -1 -1 -1 -1 -1 -0 0 0 0 0 0 0 0 0 0 1 1 1 1 1 1 1 1 1 1 1 1 1 1 0 0 0 0 0 0 0 0 0 0 -0 -0 -0 -0 0 0 0 1 1 0 0 1 0 0 0 0 0 -0 -0 -0
3 2 1 1 0 -0 -1 -0 -0 0 0 -0 -0 -0 0 0 0 0 0 0 0 0 0 1 1 0 0 0 0 0 0 1 1 1 1 1 0 0 1 0 0 0 0 -0 -1 -1 -1 -1 -1 -0 0 0 0 0 0 -0 -0 -0 0 1 1 2 2 2 2 1 1 1 1 1 1 1 1 1 1 1 1 1 1 1 0 0 -0 -0 -0 -0 -0 -0 0 0 1 0 0 0 1 0 0 0 0 -0 -0 -0 -0
3 2 2 1 -0 -1 -1 -1 -0 0 0 0 -0 -0 0 0 -0 -0 -0 -0 0 0 1 1 1 0 0 0 0 0 0 1 1 1 0 0 0 0 1 1 1 1 -0 -1 -1 -1 -1 -1 -0 0 0 0 0 0 -0 -0 -0 -0 1 1 1 2 2 2 1 1 1 1 1 1 1 1 1 1 1 1 1 1 1 1 1 0 0 0 -0 -0 -0 0 0 0 0 0 -0 -0 -0 -0 -0 0 -0 -0 -0 -0 -0
3 2 2 1 -0 -2 -2 -1 0 1 1 0 0 -0 0 -0 -0 -0 -0 -0 -0 0 1 1 0 0 0 -0 -0 0 0 1 1 1 0 1 0 0 1 1 1 0 -0 -1 -1 -1 -1 -0 0 1 1 1 0 -0 -1 -1 -1 -0 1 1 1 1 1 1 1 1 1 1 1 1 2 2 2 2 2 2 2 1 1 1 0 0 0 0 0 0 0 0 0 0 0 0 -0 -0 -1 -1 -1 -1 -0 -0 -0 -0 -0
3 2 2 0 -1 -2 -3 -0 1 2 1 1 0 -0 -0 -0 -0 -0 -0 -0 -0 0 1 1 0 0 -0 -0 -0 0 0 1 1 1 0 1 0 0 1 1 1 0 -0 -1 -1 -1 -1 -0 0 1 1 1 -0 -1 -1 -1 -1 -0 1 1 1 1 1 0 -0 -0 -0 0 1 1 2 2 2 2 2 2 1 1 1 0 0 0 0 0 0 0 0 0 0 0 0 0 0 -0 -0 -0 -0 -1 -1 -0 -0 -0 0
3 2 1 -0 -1 -2 -2 -0 1 2 2 1 0 -0 -0 -0 -0 -1 -1 -0 0 0 1 1 1 0 -0 -0 0 0 0 1 1 1 0 0 0 1 1 1 1 0 -0 -1 -1 -1 -1 -0 0 0 0 0 -0 -1 -1 -1 -0 -0 0 1 0 0 -0 -1 -1 -1 -1 -0 0 1 1 1 1 1 1 1 1 1 0 0 0 1 1 0 0 0 0 0 0 0 0 0 0 0 0 0 -0 -0 -0 -0 -0 -0 0
2 1 1 -0 -1 -1 -1 -0 1 2 2 1 0 -0 -0 -0 -1 -1 -0 -0 0 0 1 1 0 0 -0 -0 0 0 0 0 1 1 0 0 0 1 1 1 1 0 -0 -1 -1 -1 -1 -0 -0 -0 -0 -0 -0 -0 -1 -0 -0 0 0 0 0 -0 -1 -1 -1 -1 -1 -0 0 1 0 0 1 1 1 1 1 1 1 1 1 1 1 1 0 0 0 -0 -0 -0 -0 -0 0 0 1 1 1 0 0 0 -0 -0 -0
2 1 1 0 -0 -1 -1 -0 1 1 2 1 0 -0 -0 -1 -1 -1 -0 0 0 0 1 1 0 0 0 0 0 0 0 0 0 0 0 0 1 1 1 1 1 0 -0 -1 -1 -1 -1 -1 -0 -0 -0 -0 -0 -0 -0 0 1 1 1 1 0 -0 -1 -1 -1 -1 -0 0 0 0 -0 -0 -0 -0 0 0 0 0 0 0 1 1 1 0 0 0 0 0 -0 -0 -0 -0 0 0 1 1 1 1 1 0 0 0 -0
1 1 1 0 -0 -0 -0 -0 0 1 1 1 0 -0 -0 -1 -0 -0 0 0 0 1 0 0 0 0 0 0 0 -0 -0 -0 -0 0 1 1 1 1 1 1 0 0 -0 -1 -1 -1 -1 -0 -0 -0 -0 0 0 0 1 1 1 2 2 1 1 0 -0 -0 -0 -0 0 0 0 -0 -0 -1 -1 -1 -0 0 0 0 0 0 0 0 0 0 0 0 0 0 0 0 0 0 0 0 0 0 1 1 1 1 0 0 -0
1 1 1 0 0 -0 -0 -0 -0 0 0 0 -0 -0 -0 -0 -0 0 0 0 0 0 0 0 0 0 0 0 -0 -0 -0 -0 0 1 1 1 1 1 1 1 0 0 -0 -1 -1 -1 -0 -0 -0 -0 -0 0 0 1 1 1 2 2 2 1 1 1 1 0 0 0 0 0 -0 -0 -1 -1 -1 -1 -0 -0 0 -0 -0 -0 -0 -0 -0 -0 -0 -0 0 0 0 0 0 0 0 0 0 0 0 0 0 0 0 -0 -0
1 1 1 0 0 -0 -0 -0 -0 0 -0 -0 -0 -0 -0 -0 -0 -0 -0 -0 -0 -0 -0 -0 0 0 0 0 -0 -0 -0 -0 1 1 2 1 1 1 1 0 1 0 0 -1 -1 -0 0 -0 -0 -0 -0 -0 0 1 1 1 1 1 1 1 1 1 1 0 0 0 0 -0 -0 -1 -1 -1 -1 -1 -0 -0 -0 -0 -0 -0 -0 -0 -0 -0 -0 0 0 0 0 0 0 0 0 -0 -0 -0 -0 -0 -0 -0 -0 -0 -1
1 1 1 0 -0 -0 -0 0 0 -0 -0 -1 -1 -1 -0 -1 -1 -1 -1 -0 -0 -0 -1 -0 0 0 0 -0 -0 -0 -0 0 1 1 1 1 1 1 1 0 0 1 0 -0 -0 -0 0 -0 -1 -1 -1 -0 -0 -0 0 0 0 1 1 0 1 1 0 -0 -0 -0 -0 -0 -1 -1 -1 -1 -1 -1 -0 -0 -0 -0 -0 -0 -0 -0 -0 -0 0 0 0 0 0 0 -0 -0 -0 -0 -1 -1 -1 -1 -1 -1 -1 -1 -0
1 1 1 0 0 0 0 0 0 -0 -1 -1 -1 -1 -1 -2 -1 -1 -1 -1 -1 -0 -0 0 1 0 0 -0 -0 -0 -0 1 1 2 2 1 1 1 1 1 1 0 0 0 0 -0 -0 -1 -1 -1 -1 -1 -1 -1 -0 -0 -0 -0 -0 0 0 0 -0 -0 -0 -0 -0 -0 -1 -1 -1 -0 -0 -0 -0 -0 -0 -0 -0 -0 -0 -0 -0 -0 -0 0 0 0 -0 -0 -0 -0 -0 -1 -1 -1 -1 -1 -1 -1 -0 -0 -0
1 1 1 1 1 0 0 0 -0 -0 -1 -1 -2 -2 -2 -2 -1 -1 -1 -0 -0 -0 0 1 1 1 0 -0 -1 -1 0 1 1 2 2 1 1 -0 -0 0 1 0 0 0 0 -0 -1 -1 -1 -2 -2 -1 -1 -1 -1 -1 -0 -0 -0 0 -0 -0 -1 -0 -0 -0 -0 -0 -0 -0 -0 -0 -0 -0 -0 -0 -0 -0 -0 -0 -0 -0 -0 -0 -0 -0 -0 -0 -0 -0 -0 -0 -1 -1 -1 -1 -1 -1 -1 -0 -0 0 0
1 1 1 1 1 0 -0 -0 -0 -1 -1 -2 -2 -2 -2 -1 -0 -0 0 0 0 1 1 1 0 0 0 -1 -1 -1 0 1 1 2 2 1 0 -0 -1 -0 0 0 -0 -0 -0 -0 -1 -1 -1 -2 -2 -2 -1 -1 -1 -0 -0 -0 -0 0 -0 -0 -1 -0 -0 0 1 0 0 0 1 0 0 -0 -0 -0 -0 -0 -0 -0 -0 -0 -0 -0 -0 -0 -0 -0 -0 -1 -1 -1 -1 -1 -1 -1 -1 -0 -0 0 0 1 1
1 0 1 1 1 0 -0 -0 -0 -1 -2 -2 -2 -1 -1 -0 0 0 1 1 0 0 1 0 -0 -1 -0 -1 -1 -1 1 1 1 2 1 -1 -1 -1 -1 -0 -0 0 -1 -1 -1 -0 -0 -1 -1 -2 -2 -1 -1 -1 -0 -0 -0 -0 -0 0 0 -0 -0 -0 0 1 1 0 -0 0 1 0 0 -0 -0 -0 -0 -0 -0 -0 -0 -0 -0 0 -0 -0 -1 -1 -1 -1 -1 -1 -1 -1 -0 -0 -0 -0 0 0 0 1 1
-0 -0 0 1 1 0 0 0 -0 -1 -2 -2 -1 -1 -1 -0 0 0 -0 -0 -0 -0 -0 -0 -1 -1 -1 -1 -1 -0 1 1 1 1 0 -1 -2 -1 -0 1 1 -0 -1 -1 -1 -1 -0 -1 -2 -2 -1 -1 -1 -0 0 0 0 0 0 0 -0 -0 0 0 0 1 0 -0 -0 -0 0 -0 -0 0 0 -0 -0 -0 -0 -0 -0 -0 -0 0 -0 -0 -1 -1 -1 -1 -1 -0 -0 -0 0 0 0 0 0 0 0 0 0
-1 -0 1 1 1 1 1 1 0 -1 -1 -2 -2 -1 -1 -0 -0 -0 -0 -1 -1 -1 -1 -1 -1 -1 -1 -1 -0 -0 -0 0 0 -0 -0 -1 -1 -0 0 2 1 -0 -1 -0 -1 -2 -1 -1 -2 -3 -1 -0 -0 -0 0 0 -0 -0 0 -0 -0 -0 0 0 0 0 0 -1 -1 -0 -0 -0 0 0 1 0 -0 -0 -0 -0 -0 -0 -0 -0 -0 -0 -0 -1 -0 -0 0 0 0 0 0 0 1 1 0 0 0 -0 -0
-1 -0 0 1 1 1 2 1 1 -0 -1 -2 -2 -1 -0 -0 -0 -0 -1 -1 -1 -1 -1 -1 -1 -0 -0 -1 -1 -1 -1 -0 0 0 -0 -0 0 1 0 1 0 -0 -1 1 -0 -2 -3 -1 -1 -2 -3 -0 -0 -0 -1 -0 -0 -0 -0 -0 -0 -0 -0 -0 -0 -0 -0 -0 -0 -0 -0 -0 -0 0 1 0 0 0 -0 -0 -1 -1 -1 -0 -0 -0 -0 -0 0 0 1 1 1 1 0 0 0 0 0 0 0 -0 -0
-0 -0 0 0 1 1 2 1 1 0 -1 -1 -1 -1 -0 -0 -0 -1 -1 -1 -1 -1 -1 -1 -0 -0 -0 -1 -1 -1 -1 -1 -0 0 0 -0 1 1 1 0 -0 -0 -0 0 -0 -1 -3 -2 -1 -1 -2 -0 -0 -1 -2 -1 -0 -0 -0 -0 -0 -0 -0 -0 -0 -0 -1 -0 0 0 0 0 -0 -0 0 0 0 -0 -0 -1 -1 -2 -1 -1 -0 0 0 1 1 1 1 1 1 0 -0 -0 -0 0 0 0 0 0 0
-0 -0 0 1 1 1 2 2 1 1 -0 -1 -1 -1 -1 -1 -1 -1 -1 -1 -1 -0 -0 -0 -0 -0 -1 -1 -1 -1 -0 -0 -0 0 1 -0 0 1 1 1 1 0 -0 -1 -1 -1 -2 -2 -2 -2 -3 0 1 0 -2 -0 0 0 -0 0 0 0 -0 -0 -0 -0 -0 -0 0 0 1 1 0 -0 -0 -0 -0 -1 -2 -1 -2 -2 -1 -1 -0 0 0 1 1 1 1 0 0 -0 -0 -1 -0 -0 0 0 0 0 0
-0 -0 0 0 1 1 2 2 1 1 -0 -1 -1 -1 -1 -1 -0 -0 -0 0 0 -0 -0 -0 -0 -0 -1 -0 -0 -0 0 -0 -0 -0 1 0 0 0 1 1 1 1 1 -0 -1 -1 -2 -1 -0 -1 -5 -2 0 2 0 0 1 1 2 1 1 1 0 -0 -0 0 0 0 0 0 -0 1 1 0 -1 -1 -1 -2 -3 -2 -2 -2 -1 -1 -0 0 0 0 0 -0 -0 -0 -0 -0 -0 -1 -1 -1 -1 -1 -1 -1 -0
-0 -0 -0 0 1 2 2 2 1 1 -0 -1 -1 -1 -1 -0 -0 0 -0 -0 -0 -0 -0 -0 -0 -0 -0 -0 0 1 0 -0 -0 -0 -0 0 0 1 1 1 0 0 1 -0 0 0 -1 -1 -0 -0 -2 -4 -3 -1 3 1 0 0 2 2 1 1 0 -0 -0 0 0 1 1 0 -0 0 1 1 -0 -1 -2 -2 -2 -2 -2 -1 -1 -0 -0 -0 0 0 -0 -0 -1 -1 -1 -1 -1 -1 -1 -1 -2 -2 -2 -2 -2
-0 -0 -0 1 1 2 2 2 1 1 -0 -1 -1 -1 -0 -0 -0 -1 -1 -1 -1 -0 0 0 -0 -0 -0 0 1 1 -0 -1 -1 -0 -0 0 0 0 1 1 1 0 -0 -0 -0 0 1 0 -1 -1 1 -2 -5 -5 1 2 2 0 -0 1 1 1 1 0 0 0 1 1 1 1 0 -1 -1 -0 -0 -1 -1 -1 -1 -2 -1 -1 -1 -0 -0 0 0 -0 -0 -0 -1 -1 -1 -1 -1 -2 -2 -2 -2 -2 -2 -2 -2
-0 -0 0 1 2 2 2 2 1 1 -0 -0 -0 -0 -1 -1 -1 -1 -0 -0 -0 0 1 0 -0 -0 0 1 1 0 -1 -1 -1 -0 1 1 0 -0 1 1 0 -0 -0 -1 -1 -0 0 1 0 1 2 1 -1 -4 -4 -0 2 3 1 1 1 1 1 1 1 2 2 1 1 1 1 -1 -2 -2 -1 -1 -0 -0 -0 -1 -1 -1 -0 0 0 1 0 -0 -0 -1 -1 -1 -2 -2 -2 -2 -2 -2 -2 -2 -2 -2 -3
0 0 0 1 1 2 2 1 1 0 -0 -0 -0 -1 -1 -1 -1 -0 0 0 0 0 0 -0 -0 -0 0 0 0 -0 -1 -1 -0 -0 1 1 0 -1 0 0 -0 -1 -0 -0 -0 0 1 0 1 2 2 1 0 -1 -4 -3 -0 3 2 3 4 3 1 1 2 3 3 2 2 2 1 -1 -2 -2 -2 -0 0 1 1 0 -0 -0 0 1 1 1 1 -0 -0 -1 -1 -1 -2 -2 -2 -2 -2 -2 -2 -2 -3 -3 -3
Height
5836 5837 5837 5838 5838 5838 5838 5838 5839 5840 5842 5842 5842 5842 5843 5844 5845 5846 5847 5848 5849 5849 5850 5851 5851 5851 5851 5852 5852 5852 5852 5852 5853 5853 5853 5853 5853 5854 5854 5854 5855 5855 5855 5855 5855 5855 5854 5854 5854 5854 5854 5854 5853 5853 5853 5853 5853 5852 5852 5852 5851 5851 5851 5850 5850 5850 5849 5849 5849 5849 5848 5848 5848 5848 5848 5848 5847 5847 5847 5847 5847 5846 5846 5846 5846 5846 5846 5845 5845 5845 5845 5844 5844 5844 5844 5843 5843 5843 5843 5842 5842 5842 5841
5835 5835 5836 5838 5838 5837 5837 5837 5838 5839 5839 5840 5840 5841 5842 5843 5844 5845 5846 5848 5848 5848 5849 5850 5850 5850 5850 5851 5851 5851 5851 5851 5852 5852 5852 5852 5853 5853 5853 5853 5853 5854 5854 5854 5854 5854 5853 5853 5853 5853 5853 5853 5853 5852 5852 5852 5852 5851 5851 5851 5850 5850 5850 5849 5849 5849 5849 5848 5848 5848 5848 5847 5847 5847 5847 5846 5846 5846 5846 5846 5845 5845 5845 5845 5845 5845 5845 5844 5844 5844 5844 5843 5843 5843 5843 5843 5842 5842 5842 5841 5841 5841 5840
5833 5834 5834 5836 5837 5837 5836 5836 5836 5837 5837 5838 5839 5840 5840 5841 5842 5843 5844 5847 5848 5848 5849 5849 5849 5849 5849 5850 5850 5850 5850 5850 5851 5851 5851 5851 5851 5852 5852 5852 5853 5853 5853 5853 5853 5853 5853 5852 5852 5852 5852 5852 5851 5851 5851 5851 5851 5850 5850 5850 5849 5849 5849 5849 5848 5848 5848 5848 5847 5847 5847 5846 5846 5846 5846 5845 5845 5845 5845 5845 5844 5844 5844 5844 5844 5844 5844 5843 5843 5843 5843 5843 5842 5842 5842 5841 5841 5841 5840 5840 5840 5839 5839
5832 5832 5833 5834 5835 5836 5835 5835 5835 5835 5836 5837 5838 5838 5839 5840 5841 5842 5843 5845 5847 5847 5848 5848 5848 5848 5848 5848 5849 5849 5849 5849 5849 5850 5850 5850 5850 5850 5851 5851 5851 5852 5852 5852 5852 5852 5852 5852 5851 5851 5851 5850 5850 5850 5850 5850 5850 5849 5849 5849 5848 5848 5848 5848 5847 5847 5847 5847 5846 5846 5846 5845 5845 5845 5845 5844 5844 5844 5844 5844 5843 5843 5843 5843 5843 5843 5843 5843 5842 5842 5842 5842 5841 5841 5841 5840 5840 5840 5839 5839 5838 5838 5838
5830 5831 5831 5832 5833 5834 5834 5834 5834 5834 5834 5835 5836 5837 5838 5838 5839 5840 5841 5843 5845 5846 5848 5847 5847 5846 5847 5847 5848 5848 5848 5848 5848 5848 5849 5849 5849 5849 5849 5850 5850 5850 5851 5851 5851 5851 5851 5851 5850 5850 5850 5849 5849 5849 5849 5849 5849 5848 5848 5848 5848 5847 5847 5847 5846 5846 5846 5845 5845 5845 5845 5844 5844 5844 5844 5843 5843 5843 5843 5843 5843 5843 5842 5842 5842 5842 5842 5841 5841 5841 5841 5840 5840 5840 5839 5839 5839 5838 5838 5838 5838 5837 5837
5829 5829 5830 5830 5831 5832 5833 5833 5833 5833 5833 5833 5834 5835 5836 5837 5838 5839 5839 5841 5843 5845 5846 5846 5845 5845 5845 5846 5847 5847 5847 5847 5847 5848 5848 5848 5848 5848 5848 5848 5848 5849 5849 5849 5850 5850 5849 5849 5849 5849 5849 5848 5848 5848 5848 5848 5848 5848 5847 5847 5847 5846 5846 5846 5845 5845 5845 5844 5844 5844 5844 5843 5843 5843 5843 5843 5842 5842 5842 5842 5842 5841 5841 5841 5841 5841 5841 5840 5840 5840 5840 5839 5839 5839 5838 5838 5838 5837 5837 5837 5836 5836 5836
5827 5828 5828 5829 5829 5830 5831 5832 5832 5832 5832 5832 5833 5833 5834 5835 5836 5837 5838 5839 5841 5843 5845 5845 5844 5844 5844 5845 5845 5846 5846 5846 5846 5846 5847 5847 5847 5847 5847 5847 5847 5848 5848 5848 5848 5848 5848 5848 5848 5848 5848 5848 5847 5847 5847 5847 5847 5846 5846 5846 5845 5845 5845 5845 5844 5844 5844 5843 5843 5843 5843 5843 5842 5842 5842 5842 5841 5841 5841 5841 5841 5840 5840 5840 5840 5840 5839 5839 5839 5839 5838 5838 5838 5838 5837 5837 5837 5836 5836 5835 5835 5835 5834
5826 5826 5827 5828 5828 5828 5829 5830 5830 5831 5831 5831 5831 5832 5833 5833 5835 5836 5837 5838 5839 5840 5842 5843 5843 5843 5843 5843 5844 5844 5844 5845 5845 5845 5845 5845 5845 5846 5846 5846 5846 5846 5847 5847 5847 5847 5847 5847 5847 5846 5846 5846 5846 5846 5846 5846 5845 5845 5845 5845 5844 5844 5844 5843 5843 5843 5843 5843 5842 5842 5842 5841 5841 5841 5841 5840 5840 5840 5840 5840 5839 5839 5839 5839 5839 5838 5838 5838 5838 5838 5838 5837 5837 5837 5836 5836 5835 5835 5835 5834 5834 5833 5833
5824 5825 5825 5826 5826 5827 5828 5828 5829 5829 5829 5830 5830 5831 5831 5832 5833 5834 5835 5836 5837 5839 5840 5841 5842 5841 5842 5842 5843 5843 5843 5843 5843 5844 5844 5844 5844 5844 5844 5844 5845 5845 5845 5846 5846 5846 5846 5845 5845 5845 5845 5845 5845 5845 5844 5844 5844 5844 5844 5843 5843 5843 5843 5843 5842 5842 5842 5841 5841 5841 5841 5840 5840 5840 5840 5839 5839 5839 5839 5838 5838 5838 5838 5838 5838 5838 5837 5837 5837 5837 5836 5836 5836 5835 5835 5835 5834 5834 5833 5833 5833 5832 5832
5823 5824 5824 5824 5825 5826 5826 5827 5828 5828 5828 5828 5829 5829 5829 5831 5832 5833 5834 5835 5835 5837 5838 5839 5840 5840 5841 5841 5842 5842 5842 5842 5842 5843 5843 5843 5843 5843 5843 5843 5843 5844 5844 5844 5844 5844 5844 5844 5844 5844 5844 5844 5843 5843 5843 5843 5843 5843 5843 5843 5842 5842 5842 5841 5841 5841 5840 5840 5840 5840 5840 5839 5839 5839 5838 5838 5838 5838 5838 5838 5837 5837 5837 5837 5837 5836 5836 5836 5836 5835 5835 5835 5834 5834 5834 5833 5833 5833 5832 5832 5831 5831 5830
5822 5822 5823 5823 5823 5824 5824 5825 5826 5827 5827 5827 5828 5828 5828 5829 5830 5832 5833 5833 5835 5836 5837 5838 5838 5839 5839 5840 5840 5841 5841 5841 5841 5841 5842 5842 5842 5842 5842 5842 5842 5842 5843 5843 5843 5843 5843 5843 5843 5843 5843 5843 5842 5842 5842 5842 5842 5842 5841 5841 5841 5841 5840 5840 5840 5840 5839 5839 5839 5839 5838 5838 5838 5838 5838 5837 5837 5837 5837 5836 5836 5836 5836 5836 5835 5835 5835 5835 5834 5834 5834 5833 5833 5833 5833 5832 5832 5831 5831 5830 5830 5829 5829
5820 5821 5821 5822 5822 5823 5823 5824 5824 5825 5825 5825 5826 5826 5827 5828 5829 5830 5831 5832 5833 5834 5835 5836 5837 5837 5838 5838 5839 5839 5840 5840 5840 5840 5840 5840 5841 5840 5840 5841 5841 5841 5841 5842 5842 5842 5842 5842 5842 5841 5841 5841 5841 5841 5841 5841 5840 5840 5840 5840 5840 5839 5839 5839 5839 5838 5838 5838 5838 5838 5838 5837 5837 5837 5836 5836 5836 5836 5835 5835 5835 5835 5835 5834 5834 5834 5834 5833 5833 5833 5833 5832 5832 5832 5831 5831 5830 5830 5829 5829 5828 5828 5828
5819 5819 5820 5820 5820 5821 5822 5822 5823 5823 5823 5823 5824 5824 5825 5826 5827 5828 5830 5831 5832 5833 5834 5834 5835 5836 5836 5837 5838 5838 5838 5838 5839 5839 5839 5839 5839 5839 5839 5839 5839 5840 5840 5840 5840 5841 5841 5841 5840 5840 5840 5840 5840 5840 5839 5839 5839 5839 5839 5839 5838 5838 5838 5838 5838 5838 5837 5837 5837 5837 5836 5836 5836 5836 5835 5835 5835 5834 5834 5834 5834 5834 5833 5833 5833 5833 5833 5832 5832 5832 5831 5831 5831 5830 5830 5829 5829 5828 5828 5828 5827 5827 5826
5818 5818 5818 5818 5819 5819 5820 5820 5821 5822 5822 5822 5822 5823 5824 5824 5825 5827 5828 5829 5831 5832 5833 5833 5834 5834 5835 5835 5836 5837 5837 5837 5838 5838 5838 5838 5838 5838 5838 5838 5838 5838 5838 5839 5839 5839 5839 5839 5839 5839 5839 5839 5838 5838 5838 5838 5838 5838 5838 5838 5837 5837 5837 5837 5837 5837 5836 5836 5836 5835 5835 5835 5835 5834 5834 5834 5834 5833 5833 5833 5833 5833 5832 5832 5832 5832 5831 5831 5831 5830 5830 5830 5829 5829 5828 5828 5828 5827 5827 5826 5825 5825 5824
5816 5816 5817 5817 5818 5818 5818 5819 5819 5820 5821 5821 5821 5822 5822 5823 5824 5825 5826 5828 5829 5830 5831 5832 5833 5833 5833 5834 5835 5836 5836 5836 5836 5837 5837 5837 5837 5837 5837 5837 5837 5837 5837 5838 5838 5838 5838 5838 5838 5838 5838 5838 5837 5837 5837 5837 5837 5837 5836 5836 5836 5836 5836 5836 5835 5835 5835 5835 5835 5834 5834 5834 5833 5833 5833 5833 5833 5832 5832 5832 5832 5831 5831 5831 5830 5830 5830 5830 5829 5829 5829 5828 5828 5828 5827 5826 5826 5825 5825 5824 5824 5823 5823
5814 5815 5815 5815 5816 5816 5817 5817 5818 5818 5819 5820 5820 5820 5821 5822 5823 5823 5825 5826 5827 5828 5829 5830 5831 5832 5832 5833 5833 5834 5835 5835 5835 5835 5835 5836 5836 5836 5836 5836 5836 5836 5836 5836 5836 5837 5837 5837 5837 5837 5837 5837 5836 5836 5836 5836 5835 5835 5835 5835 5835 5835 5834 5834 5834 5834 5834 5834 5834 5833 5833 5833 5833 5832 5832 5832 5831 5831 5831 5830 5830 5830 5830 5829 5829 5829 5829 5828 5828 5828 5827 5827 5826 5826 5825 5825 5824 5824 5823 5823 5822 5822 5821
5813 5813 5813 5814 5814 5815 5815 5816 5816 5817 5817 5818 5818 5818 5819 5820 5821 5822 5823 5824 5825 5826 5828 5829 5829 5830 5831 5832 5832 5833 5833 5833 5834 5834 5834 5834 5835 5835 5835 5835 5835 5835 5835 5835 5835 5835 5835 5836 5836 5836 5836 5835 5835 5835 5835 5834 5834 5834 5834 5834 5833 5833 5833 5833 5833 5833 5833 5833 5833 5832 5832 5832 5831 5831 5831 5831 5830 5830 5830 5829 5829 5829 5828 5828 5828 5828 5827 5827 5827 5826 5826 5825 5825 5824 5824 5823 5823 5822 5822 5821 5821 5820 5819
5811 5811 5812 5812 5813 5813 5813 5814 5814 5815 5815 5816 5817 5817 5818 5818 5819 5820 5821 5822 5823 5825 5826 5827 5828 5828 5829 5830 5831 5831 5832 5832 5833 5833 5833 5833 5833 5833 5833 5833 5833 5833 5833 5833 5833 5834 5834 5834 5834 5834 5834 5834 5834 5833 5833 5833 5833 5833 5833 5833 5832 5832 5832 5832 5832 5832 5832 5832 5831 5831 5831 5831 5830 5830 5830 5829 5829 5829 5828 5828 5828 5827 5827 5827 5826 5826 5826 5825 5825 5825 5824 5824 5823 5823 5822 5822 5821 5821 5820 5819 5819 5818 5818
5809 5810 5810 5810 5811 5811 5812 5813 5813 5813 5814 5814 5815 5816 5816 5817 5818 5819 5820 5821 5822 5823 5824 5825 5826 5827 5828 5828 5829 5830 5830 5831 5831 5831 5832 5832 5832 5832 5833 5833 5832 5832 5832 5832 5832 5833 5833 5833 5833 5833 5833 5833 5833 5832 5832 5832 5832 5832 5831 5831 5831 5831 5831 5830 5830 5830 5830 5830 5830 5830 5830 5829 5829 5829 5828 5828 5828 5828 5827 5827 5826 5826 5826 5825 5825 5825 5824 5824 5823 5823 5823 5822 5822 5821 5821 5820 5819 5819 5818 5818 5817 5816 5816
5807 5808 5808 5809 5809 5810 5810 5811 5811 5812 5812 5813 5813 5814 5815 5815 5816 5818 5818 5819 5820 5821 5823 5823 5824 5825 5826 5827 5828 5828 5829 5829 5830 5830 5830 5830 5831 5831 5831 5831 5831 5831 5831 5831 5831 5831 5831 5832 5832 5832 5832 5831 5831 5831 5831 5830 5830 5830 5830 5830 5829 5829 5829 5829 5829 5829 5829 5829 5829 5828 5828 5828 5828 5828 5827 5827 5826 5826 5826 5825 5825 5825 5824 5824 5823 5823 5823 5822 5822 5821 5821 5820 5820 5819 5819 5818 5818 5817 5817 5816 5815 5814 5814
5805 5806 5807 5807 5808 5808 5809 5809 5810 5810 5811 5811 5812 5812 5813 5814 5815 5816 5817 5818 5819 5820 5821 5822 5822 5823 5824 5825 5826 5827 5828 5828 5828 5829 5829 5829 5829 5830 5830 5830 5830 5830 5830 5830 5830 5830 5830 5830 5830 5830 5830 5830 5830 5829 5829 5829 5829 5828 5828 5828 5828 5828 5828 5828 5828 5828 5827 5827 5827 5827 5827 5827 5826 5826 5826 5825 5825 5825 5824 5824 5823 5823 5823 5822 5822 5822 5821 5821 5820 5820 5819 5818 5818 5818 5817 5816 5816 5815 5814 5814 5813 5813 5812
5803 5804 5805 5805 5806 5807 5807 5808 5808 5808 5809 5810 5810 5811 5811 5812 5813 5814 5815 5816 5818 5818 5819 5820 5820 5821 5822 5823 5824 5825 5826 5827 5827 5827 5828 5828 5828 5828 5828 5829 5829 5829 5828 5828 5828 5828 5829 5829 5829 5829 5829 5829 5828 5828 5828 5827 5827 5827 5827 5827 5827 5826 5826 5826 5826 5826 5826 5826 5826 5825 5825 5825 5825 5825 5824 5824 5824 5823 5823 5823 5822 5822 5821 5821 5820 5820 5819 5819 5818 5818 5817 5817 5816 5816 5815 5814 5814 5813 5813 5812 5811 5811 5810
5802 5802 5803 5803 5804 5805 5805 5806 5806 5807 5808 5808 5808 5809 5809 5811 5812 5813 5813 5815 5816 5817 5817 5818 5819 5820 5821 5822 5823 5823 5824 5825 5826 5826 5826 5827 5827 5827 5827 5828 5828 5827 5827 5827 5827 5827 5827 5828 5828 5828 5828 5827 5827 5826 5826 5826 5825 5825 5825 5825 5825 5825 5825 5825 5825 5824 5824 5824 5824 5824 5824 5824 5823 5823 5823 5823 5822 5822 5822 5821 5821 5820 5819 5819 5818 5818 5818 5817 5817 5816 5815 5815 5814 5814 5813 5813 5812 5811 5811 5810 5809 5808 5808
5800 5800 5801 5802 5802 5803 5803 5804 5805 5805 5806 5806 5807 5807 5808 5811 5812 5812 5812 5813 5814 5815 5816 5816 5817 5818 5819 5820 5821 5822 5823 5823 5824 5825 5825 5825 5826 5826 5826 5826 5826 5826 5826 5826 5826 5826 5826 5826 5826 5826 5826 5826 5825 5825 5824 5824 5824 5823 5823 5823 5823 5823 5823 5823 5823 5823 5823 5823 5823 5823 5823 5822 5822 5822 5822 5821 5821 5820 5820 5819 5819 5818 5818 5818 5817 5816 5816 5815 5815 5814 5813 5813 5813 5812 5811 5811 5810 5809 5808 5808 5807 5807 5806
5798 5798 5799 5800 5800 5801 5802 5802 5803 5803 5804 5804 5805 5805 5806 5808 5810 5811 5810 5811 5812 5813 5814 5815 5816 5817 5818 5819 5820 5820 5821 5822 5823 5823 5824 5824 5824 5824 5825 5825 5825 5824 5824 5824 5824 5824 5824 5824 5824 5824 5824 5824 5824 5823 5823 5823 5822 5822 5822 5822 5822 5822 5822 5822 5822 5822 5822 5822 5821 5821 5821 5821 5821 5820 5820 5820 5819 5819 5818 5818 5818 5817 5817 5816 5815 5815 5814 5814 5813 5813 5812 5811 5811 5810 5809 5808 5808 5807 5807 5806 5805 5804 5803
5796 5796 5797 5798 5798 5799 5800 5800 5801 5802 5802 5803 5803 5803 5805 5806 5808 5809 5809 5809 5810 5812 5813 5813 5814 5815 5816 5817 5818 5819 5820 5820 5821 5822 5823 5823 5823 5823 5823 5823 5823 5823 5823 5823 5823 5823 5823 5823 5823 5823 5823 5823 5822 5822 5821 5821 5821 5820 5820 5820 5820 5820 5820 5820 5820 5820 5820 5820 5820 5820 5819 5819 5819 5819 5818 5818 5818 5817 5817 5817 5816 5815 5815 5814 5814 5813 5813 5812 5811 5811 5810 5809 5808 5808 5807 5807 5806 5805 5804 5804 5803 5802 5802
5793 5794 5795 5796 5797 5797 5798 5798 5799 5800 5800 5801 5802 5802 5803 5804 5806 5807 5808 5808 5809 5810 5811 5812 5813 5814 5815 5816 5817 5817 5818 5819 5820 5820 5821 5821 5822 5822 5822 5822 5822 5822 5822 5821 5821 5821 5821 5821 5821 5821 5821 5821 5821 5820 5820 5819 5819 5819 5819 5819 5819 5819 5819 5819 5819 5819 5819 5819 5818 5818 5818 5818 5818 5818 5817 5817 5816 5816 5816 5815 5814 5814 5813 5813 5812 5812 5811 5810 5810 5809 5808 5808 5807 5806 5805 5805 5804 5803 5803 5802 5801 5800 5799
5791 5792 5793 5794 5795 5795 5796 5797 5797 5798 5799 5799 5800 5801 5802 5803 5803 5805 5806 5807 5808 5808 5809 5810 5811 5812 5813 5814 5815 5816 5817 5817 5818 5819 5819 5820 5820 5821 5821 5821 5821 5821 5820 5820 5820 5819 5819 5819 5819 5819 5819 5819 5819 5819 5818 5818 5818 5818 5818 5817 5817 5817 5817 5817 5817 5817 5817 5817 5817 5817 5817 5817 5816 5816 5816 5815 5815 5814 5814 5813 5813 5812 5812 5811 5810 5810 5809 5808 5808 5807 5807 5806 5805 5804 5803 5803 5802 5801 5801 5800 5799 5798 5797
5789 5790 5791 5792 5793 5793 5794 5795 5795 5796 5797 5798 5798 5799 5800 5801 5802 5803 5804 5805 5807 5807 5808 5808 5809 5811 5812 5813 5813 5814 5815 5816 5816 5817 5818 5818 5819 5819 5819 5819 5819 5819 5819 5819 5818 5818 5818 5818 5818 5818 5817 5817 5817 5817 5817 5817 5816 5816 5816 5816 5816 5816 5816 5816 5816 5816 5816 5816 5816 5815 5815 5815 5815 5814 5814 5814 5813 5813 5812 5812 5811 5811 5810 5809 5809 5808 5808 5807 5806 5805 5805 5804 5803 5803 5802 5801 5800 5799 5798 5798 5797 5796 5795
5787 5788 5789 5790 5791 5792 5793 5793 5793 5794 5795 5796 5797 5797 5798 5799 5800 5801 5802 5803 5805 5806 5807 5807 5808 5809 5810 5811 5812 5813 5813 5814 5815 5815 5816 5817 5817 5817 5818 5818 5818 5818 5818 5818 5817 5817 5817 5816 5816 5816 5816 5816 5815 5815 5815 5815 5815 5815 5814 5814 5814 5814 5814 5814 5814 5814 5814 5814 5814 5814 5814 5814 5813 5813 5813 5813 5812 5811 5811 5810 5809 5809 5808 5808 5807 5806 5806 5805 5804 5804 5803 5802 5802 5801 5800 5799 5798 5798 5797 5796 5795 5794 5793
5785 5786 5787 5788 5789 5790 5791 5791 5792 5793 5793 5794 5795 5796 5796 5797 5798 5799 5800 5802 5803 5804 5805 5806 5807 5808 5809 5810 5810 5811 5812 5813 5813 5814 5814 5815 5815 5816 5816 5816 5817 5817 5817 5816 5816 5816 5815 5815 5815 5814 5814 5814 5814 5814 5814 5813 5813 5813 5813 5813 5813 5813 5813 5813 5813 5813 5813 5813 5813 5813 5812 5812 5812 5811 5811 5811 5810 5809 5809 5808 5808 5808 5807 5806 5806 5805 5804 5804 5803 5802 5801 5801 5800 5799 5798 5797 5796 5796 5795 5794 5793 5792 5790
5783 5783 5784 5785 5787 5788 5789 5789 5790 5791 5791 5792 5793 5794 5795 5796 5797 5798 5799 5800 5801 5802 5803 5804 5805 5806 5807 5808 5809 5810 5810 5811 5812 5812 5813 5813 5814 5814 5814 5815 5815 5815 5815 5815 5814 5814 5814 5813 5813 5813 5813 5812 5812 5812 5812 5812 5812 5812 5812 5811 5811 5811 5811 5811 5811 5811 5811 5811 5811 5811 5811 5810 5810 5810 5809 5809 5808 5808 5808 5807 5806 5806 5805 5804 5804 5803 5803 5802 5801 5801 5800 5799 5798 5798 5797 5795 5794 5793 5793 5791 5790 5789 5788
5780 5782 5783 5783 5784 5786 5787 5788 5788 5789 5789 5790 5791 5792 5793 5794 5795 5796 5797 5798 5800 5801 5802 5803 5804 5805 5806 5807 5808 5808 5809 5809 5810 5811 5811 5812 5812 5813 5813 5813 5813 5813 5813 5813 5813 5813 5813 5812 5812 5811 5811 5811 5811 5811 5810 5810 5810 5810 5810 5810 5810 5810 5810 5810 5810 5810 5809 5809 5809 5809 5809 5809 5808 5808 5808 5807 5807 5806 5806 5805 5804 5804 5803 5803 5802 5802 5801 5800 5799 5799 5798 5797 5796 5795 5794 5793 5793 5791 5790 5789 5788 5787 5785
5778 5780 5780 5781 5783 5783 5785 5786 5786 5787 5788 5788 5789 5790 5791 5792 5793 5794 5796 5797 5798 5799 5801 5802 5803 5803 5804 5805 5806 5807 5807 5808 5808 5809 5809 5810 5811 5811 5811 5812 5812 5812 5812 5812 5812 5811 5811 5811 5810 5810 5809 5809 5809 5809 5809 5808 5808 5808 5808 5808 5808 5808 5808 5808 5808 5808 5808 5808 5808 5808 5808 5807 5807 5806 5806 5805 5805 5804 5804 5803 5803 5802 5802 5801 5800 5800 5799 5798 5798 5797 5796 5795 5794 5793 5792 5791 5790 5789 5788 5787 5786 5784 5783
5776 5778 5778 5779 5780 5782 5783 5783 5784 5785 5786 5787 5788 5788 5789 5791 5792 5793 5794 5795 5797 5798 5799 5800 5801 5802 5803 5804 5804 5805 5806 5806 5807 5808 5808 5808 5809 5809 5810 5810 5810 5810 5810 5810 5810 5810 5809 5809 5809 5808 5808 5808 5807 5807 5807 5807 5807 5807 5807 5807 5807 5807 5807 5807 5807 5807 5807 5806 5806 5806 5806 5805 5805 5805 5804 5804 5803 5803 5802 5801 5801 5800 5800 5799 5798 5798 5797 5797 5796 5795 5794 5793 5792 5791 5790 5789 5788 5787 5786 5784 5783 5782 5781
5774 5775 5776 5777 5778 5779 5780 5782 5783 5783 5784 5785 5786 5787 5788 5789 5790 5791 5793 5794 5795 5796 5798 5798 5799 5800 5801 5802 5803 5803 5804 5805 5805 5806 5807 5807 5808 5808 5808 5808 5808 5809 5809 5808 5808 5808 5808 5808 5807 5807 5806 5806 5806 5805 5805 5805 5805 5805 5805 5806 5806 5806 5806 5805 5805 5805 5805 5805 5805 5804 5804 5804 5803 5803 5803 5802 5802 5801 5800 5800 5799 5798 5798 5797 5797 5796 5795 5794 5793 5793 5792 5791 5790 5789 5788 5787 5786 5785 5783 5782 5781 5780 5778
5772 5773 5774 5775 5776 5777 5778 5779 5781 5782 5782 5783 5784 5785 5786 5788 5789 5790 5791 5792 5793 5795 5796 5797 5798 5799 5800 5801 5801 5802 5803 5803 5804 5805 5805 5806 5806 5806 5807 5807 5807 5807 5807 5807 5807 5807 5807 5806 5806 5805 5805 5804 5804 5803 5803 5803 5803 5803 5804 5804 5804 5804 5804 5804 5804 5803 5803 5803 5803 5803 5803 5803 5802 5802 5801 5801 5800 5800 5799 5798 5798 5797 5796 5796 5795 5794 5793 5793 5792 5791 5790 5789 5788 5787 5786 5784 5783 5782 5781 5780 5778 5777 5776
5769 5770 5772 5773 5774 5775 5776 5777 5778 5780 5781 5781 5783 5783 5785 5786 5787 5788 5789 5791 5792 5793 5794 5795 5796 5797 5798 5799 5800 5800 5801 5802 5803 5803 5804 5804 5804 5805 5805 5805 5806 5806 5806 5806 5806 5805 5805 5805 5804 5804 5803 5803 5802 5802 5802 5802 5802 5802 5802 5802 5803 5803 5802 5802 5802 5802 5802 5802 5802 5802 5801 5801 5801 5800 5800 5799 5799 5798 5798 5797 5796 5796 5795 5794 5793 5792 5791 5791 5790 5789 5788 5787 5785 5784 5783 5782 5781 5779 5778 5777 5775 5774 5773
5767 5768 5769 5771 5772 5773 5774 5775 5777 5778 5779 5780 5781 5782 5783 5784 5785 5786 5788 5789 5790 5791 5793 5794 5795 5796 5797 5798 5798 5799 5800 5800 5801 5802 5802 5803 5803 5803 5804 5804 5804 5804 5804 5804 5804 5804 5803 5803 5803 5802 5802 5801 5800 5800 5800 5800 5800 5800 5801 5801 5801 5801 5801 5800 5800 5800 5800 5800 5800 5800 5800 5799 5799 5799 5798 5798 5798 5797 5796 5795 5795 5794 5793 5792 5791 5790 5789 5788 5788 5787 5786 5784 5783 5782 5781 5779 5778 5777 5776 5774 5773 5771 5770
5764 5766 5767 5768 5769 5770 5772 5773 5775 5776 5777 5778 5779 5780 5781 5782 5783 5785 5786 5787 5788 5790 5791 5792 5793 5794 5795 5796 5797 5798 5798 5799 5799 5800 5801 5801 5802 5802 5802 5803 5803 5803 5803 5803 5803 5803 5802 5802 5801 5801 5800 5799 5799 5798 5798 5798 5798 5799 5799 5799 5799 5799 5799 5799 5799 5798 5798 5798 5798 5798 5798 5798 5798 5797 5797 5796 5796 5795 5794 5794 5793 5792 5791 5790 5789 5788 5788 5787 5785 5784 5783 5782 5781 5780 5778 5777 5776 5774 5773 5772 5770 5768 5767
5762 5763 5765 5766 5767 5768 5770 5771 5773 5774 5775 5776 5777 5778 5779 5780 5782 5783 5784 5786 5787 5788 5789 5791 5792 5793 5794 5794 5795 5796 5797 5797 5798 5799 5799 5800 5800 5800 5801 5801 5801 5801 5801 5801 5801 5801 5801 5800 5800 5799 5798 5798 5797 5797 5797 5797 5797 5797 5798 5798 5798 5797 5797 5797 5797 5797 5797 5797 5797 5797 5796 5796 5796 5795 5795 5795 5794 5793 5793 5792 5791 5790 5789 5788 5787 5786 5785 5784 5783 5782 5781 5780 5778 5777 5776 5775 5773 5772 5770 5769 5767 5765 5764
5759 5761 5762 5764 5765 5766 5768 5769 5771 5772 5773 5774 5775 5776 5778 5778 5780 5781 5783 5784 5785 5787 5788 5789 5790 5791 5792 5793 5794 5795 5795 5796 5797 5797 5798 5798 5799 5799 5799 5799 5799 5799 5799 5800 5800 5799 5799 5799 5798 5798 5797 5796 5796 5796 5796 5796 5796 5796 5796 5796 5796 5796 5796 5796 5796 5796 5795 5795 5795 5795 5794 5794 5794 5793 5793 5793 5792 5791 5791 5790 5789 5788 5787 5786 5785 5784 5783 5782 5781 5779 5778 5777 5776 5774 5773 5772 5770 5769 5767 5766 5764 5763 5761
5757 5758 5760 5762 5763 5764 5766 5767 5769 5770 5771 5772 5773 5774 5776 5777 5778 5779 5781 5782 5784 5785 5786 5787 5788 5789 5790 5791 5792 5793 5794 5794 5795 5796 5796 5797 5797 5798 5798 5798 5798 5798 5798 5798 5798 5798 5798 5797 5797 5796 5795 5795 5795 5794 5794 5794 5795 5795 5795 5795 5795 5794 5794 5794 5794 5794 5794 5794 5793 5793 5793 5792 5792 5792 5791 5791 5790 5789 5788 5788 5787 5786 5785 5784 5783 5782 5781 5779 5778 5777 5776 5774 5773 5772 5770 5769 5768 5766 5764 5763 5761 5759 5757
5754 5756 5758 5760 5761 5763 5764 5765 5767 5768 5769 5770 5771 5773 5774 5775 5776 5778 5779 5781 5782 5783 5785 5786 5787 5788 5788 5790 5791 5792 5792 5793 5794 5794 5795 5795 5796 5796 5796 5796 5796 5797 5797 5797 5797 5796 5796 5796 5795 5794 5794 5794 5793 5793 5793 5793 5793 5794 5794 5793 5793 5793 5793 5793 5793 5793 5793 5793 5792 5792 5791 5790 5790 5790 5789 5788 5788 5787 5786 5785 5784 5783 5783 5781 5780 5779 5778 5777 5776 5774 5773 5772 5770 5769 5767 5766 5764 5763 5761 5759 5758 5756 5754
5752 5754 5756 5758 5759 5761 5762 5763 5765 5766 5767 5768 5769 5771 5772 5773 5775 5776 5778 5779 5780 5782 5783 5784 5785 5786 5787 5788 5789 5790 5791 5792 5792 5793 5793 5794 5794 5794 5795 5795 5795 5795 5795 5795 5795 5795 5794 5794 5793 5793 5793 5792 5792 5792 5792 5792 5792 5792 5792 5792 5792 5792 5792 5792 5792 5792 5791 5791 5790 5790 5789 5788 5788 5788 5787 5786 5786 5785 5784 5783 5782 5781 5780 5779 5778 5777 5775 5774 5773 5772 5770 5769 5767 5766 5764 5763 5761 5759 5758 5756 5754 5752 5750
5750 5752 5754 5756 5757 5759 5760 5762 5763 5764 5765 5766 5768 5769 5770 5772 5773 5774 5776 5777 5778 5780 5781 5782 5783 5784 5785 5786 5787 5788 5789 5790 5791 5792 5792 5793 5793 5793 5793 5793 5793 5794 5794 5794 5793 5793 5793 5793 5792 5792 5791 5791 5791 5791 5791 5791 5791 5791 5791 5791 5791 5791 5790 5790 5790 5790 5789 5789 5788 5788 5787 5787 5786 5785 5785 5784 5783 5782 5781 5780 5779 5778 5777 5776 5775 5774 5773 5771 5770 5769 5767 5766 5764 5763 5761 5759 5758 5756 5754 5752 5750 5748 5747
5748 5750 5752 5754 5755 5757 5758 5760 5761 5762 5763 5764 5766 5767 5768 5770 5771 5772 5774 5775 5777 5778 5779 5780 5781 5783 5783 5784 5785 5786 5787 5788 5789 5790 5791 5791 5791 5792 5792 5792 5792 5792 5792 5792 5792 5792 5792 5791 5791 5790 5790 5790 5789 5789 5789 5789 5789 5789 5789 5789 5789 5789 5789 5789 5788 5788 5788 5787 5787 5786 5785 5785 5784 5783 5783 5782 5781 5780 5779 5778 5777 5776 5775 5774 5773 5771 5770 5769 5767 5766 5764 5763 5761 5759 5758 5756 5754 5752 5750 5748 5746 5745 5743
5746 5748 5750 5752 5753 5755 5757 5758 5759 5760 5761 5762 5763 5765 5766 5768 5769 5770 5772 5773 5775 5776 5777 5778 5780 5781 5782 5783 5784 5785 5786 5787 5788 5788 5789 5790 5790 5790 5790 5791 5791 5791 5791 5791 5790 5790 5790 5789 5789 5789 5788 5788 5788 5788 5788 5788 5788 5788 5788 5788 5788 5788 5787 5787 5787 5787 5786 5786 5785 5784 5784 5783 5782 5781 5781 5780 5779 5778 5777 5776 5774 5773 5772 5771 5770 5768 5767 5766 5764 5763 5761 5759 5758 5756 5754 5752 5750 5748 5746 5744 5743 5741 5739
5744 5746 5748 5750 5752 5753 5755 5756 5757 5758 5759 5760 5762 5763 5764 5766 5767 5768 5770 5771 5773 5774 5775 5777 5778 5779 5781 5782 5783 5783 5784 5785 5786 5787 5788 5788 5788 5788 5789 5789 5789 5789 5789 5789 5789 5788 5788 5788 5788 5787 5787 5787 5787 5787 5787 5787 5787 5787 5786 5786 5786 5786 5786 5786 5785 5785 5785 5784 5783 5783 5782 5781 5780 5779 5778 5778 5776 5775 5774 5773 5772 5771 5770 5768 5767 5766 5764 5763 5761 5760 5758 5756 5754 5753 5751 5749 5747 5745 5743 5741 5739 5738 5736
5742 5744 5746 5748 5750 5752 5753 5754 5755 5756 5757 5758 5760 5761 5762 5764 5765 5767 5768 5770 5771 5773 5774 5775 5777 5778 5779 5780 5781 5782 5783 5783 5784 5785 5786 5786 5786 5786 5787 5787 5788 5788 5788 5787 5787 5787 5787 5786 5786 5786 5785 5785 5785 5785 5785 5785 5785 5785 5785 5785 5785 5784 5784 5784 5784 5783 5783 5782 5782 5781 5780 5779 5778 5778 5776 5775 5774 5773 5772 5771 5770 5768 5767 5766 5764 5763 5761 5760 5758 5756 5754 5753 5751 5749 5747 5745 5743 5741 5740 5738 5736 5734 5733
5740 5742 5744 5746 5748 5750 5751 5753 5753 5754 5756 5757 5758 5759 5761 5762 5764 5765 5767 5768 5769 5771 5773 5774 5775 5776 5777 5778 5779 5780 5781 5782 5783 5783 5783 5784 5784 5785 5785 5785 5786 5786 5786 5786 5786 5785 5785 5785 5784 5784 5784 5784 5784 5784 5784 5783 5783 5783 5783 5783 5783 5783 5783 5783 5782 5782 5781 5780 5780 5779 5778 5777 5776 5775 5774 5773 5772 5771 5770 5768 5767 5766 5764 5763 5761 5760 5758 5757 5755 5753 5751 5749 5748 5746 5744 5742 5740 5738 5737 5735 5733 5731 5729
5738 5740 5743 5744 5746 5748 5749 5751 5752 5753 5754 5755 5756 5758 5759 5761 5762 5764 5765 5766 5768 5769 5771 5772 5773 5774 5775 5776 5777 5778 5779 5780 5781 5782 5782 5782 5783 5783 5784 5784 5784 5784 5784 5784 5783 5783 5783 5783 5783 5783 5783 5783 5783 5782 5782 5782 5782 5782 5782 5782 5782 5781 5781 5781 5780 5780 5779 5778 5778 5777 5776 5775 5774 5773 5772 5771 5770 5768 5767 5766 5764 5763 5762 5760 5758 5757 5755 5753 5752 5750 5748 5746 5744 5743 5741 5739 5737 5735 5733 5732 5730 5728 5726
5736 5738 5741 5743 5745 5746 5748 5749 5750 5751 5752 5753 5755 5756 5758 5759 5760 5762 5763 5765 5766 5767 5769 5770 5771 5772 5773 5774 5775 5776 5777 5778 5779 5780 5781 5781 5781 5782 5782 5782 5783 5783 5783 5783 5782 5782 5782 5782 5782 5782 5782 5781 5781 5781 5781 5781 5781 5781 5780 5780 5780 5780 5779 5779 5778 5778 5777 5776 5776 5775 5774 5773 5772 5771 5770 5769 5768 5766 5764 5763 5762 5760 5758 5757 5755 5753 5752 5750 5748 5747 5745 5743 5741 5739 5738 5736 5734 5733 5731 5729 5727 5725 5723
5735 5737 5739 5741 5743 5745 5746 5748 5749 5750 5751 5752 5753 5754 5756 5757 5759 5760 5762 5763 5764 5766 5767 5768 5769 5770 5771 5772 5773 5774 5775 5776 5777 5778 5779 5780 5780 5780 5780 5781 5781 5781 5781 5781 5781 5780 5780 5780 5780 5780 5780 5780 5780 5779 5779 5779 5779 5779 5779 5778 5778 5778 5777 5777 5776 5776 5775 5774 5773 5773 5772 5771 5770 5769 5768 5766 5765 5763 5762 5760 5758 5757 5755 5754 5752 5750 5749 5747 5745 5743 5742 5740 5738 5736 5735 5733 5731 5729 5728 5726 5724 5722 5720
5733 5735 5738 5740 5742 5743 5745 5746 5747 5748 5749 5750 5752 5753 5754 5756 5757 5759 5760 5761 5763 5764 5765 5766 5768 5768 5769 5770 5771 5773 5774 5775 5776 5776 5777 5778 5778 5779 5779 5779 5779 5779 5779 5779 5779 5779 5779 5779 5778 5778 5778 5778 5778 5778 5778 5778 5777 5777 5777 5777 5776 5776 5775 5775 5774 5774 5773 5772 5772 5771 5770 5769 5768 5766 5765 5764 5762 5761 5759 5757 5756 5754 5752 5750 5749 5747 5745 5744 5742 5740 5739 5737 5735 5733 5732 5730 5728 5726 5725 5723 5721 5719 5717
5732 5734 5736 5738 5740 5742 5743 5745 5746 5747 5748 5749 5750 5751 5753 5754 5756 5757 5758 5760 5761 5763 5764 5765 5766 5767 5768 5768 5769 5771 5772 5773 5774 5775 5776 5776 5777 5777 5778 5778 5778 5778 5778 5778 5778 5778 5778 5778 5777 5777 5777 5777 5777 5777 5776 5776 5776 5776 5775 5775 5775 5774 5774 5773 5773 5772 5771 5770 5769 5768 5768 5767 5765 5764 5763 5761 5759 5758 5756 5754 5753 5751 5749 5748 5746 5744 5742 5741 5739 5737 5736 5734 5732 5730 5728 5727 5725 5723 5721 5720 5718 5716 5714
5730 5733 5735 5737 5739 5740 5742 5743 5744 5745 5746 5747 5748 5750 5751 5753 5754 5756 5757 5758 5760 5761 5762 5763 5764 5765 5766 5767 5768 5769 5770 5772 5773 5773 5774 5774 5775 5775 5776 5776 5776 5776 5776 5776 5776 5776 5776 5776 5776 5776 5775 5775 5775 5775 5775 5774 5774 5774 5774 5773 5773 5773 5772 5771 5771 5770 5769 5768 5767 5766 5765 5764 5763 5761 5760 5758 5757 5755 5753 5751 5749 5748 5746 5744 5743 5741 5739 5738 5736 5734 5733 5731 5729 5727 5725 5723 5722 5720 5718 5716 5714 5712 5710
5729 5731 5733 5736 5737 5739 5740 5741 5743 5743 5745 5746 5747 5748 5750 5751 5753 5754 5756 5757 5758 5759 5760 5761 5763 5763 5764 5766 5767 5768 5769 5770 5771 5772 5772 5773 5773 5774 5774 5774 5775 5775 5775 5775 5775 5775 5774 5774 5774 5774 5774 5773 5773 5773 5773 5773 5772 5772 5772 5772 5771 5771 5770 5769 5769 5768 5767 5766 5765 5764 5763 5762 5760 5759 5757 5755 5754 5752 5750 5748 5747 5745 5743 5742 5740 5738 5737 5735 5733 5731 5729 5728 5726 5724 5722 5720 5718 5717 5714 5713 5711 5708 5707
5727 5730 5732 5734 5736 5737 5738 5740 5741 5742 5743 5744 5745 5747 5748 5750 5751 5753 5754 5755 5756 5758 5758 5760 5761 5762 5763 5764 5765 5767 5767 5768 5769 5770 5771 5771 5772 5772 5773 5773 5773 5773 5774 5774 5774 5774 5773 5773 5773 5773 5773 5771 5770 5770 5770 5771 5770 5770 5770 5770 5769 5769 5768 5768 5767 5766 5765 5764 5763 5762 5760 5759 5758 5756 5754 5753 5751 5749 5748 5746 5744 5742 5741 5739 5737 5736 5734 5732 5730 5728 5727 5725 5723 5721 5719 5717 5715 5713 5711 5709 5707 5705 5703
5725 5728 5730 5733 5734 5736 5737 5738 5739 5740 5741 5743 5744 5745 5747 5748 5749 5751 5752 5753 5755 5756 5757 5758 5759 5760 5761 5763 5764 5765 5765 5766 5767 5768 5769 5770 5770 5771 5771 5772 5772 5772 5773 5773 5773 5773 5773 5772 5771 5771 5771 5770 5769 5768 5768 5768 5768 5768 5768 5768 5768 5767 5766 5765 5765 5764 5763 5762 5761 5759 5758 5756 5754 5753 5751 5750 5748 5747 5745 5743 5741 5740 5738 5736 5735 5733 5732 5730 5728 5726 5724 5722 5720 5718 5716 5714 5712 5710 5708 5706 5704 5702 5700
5724 5726 5728 5731 5733 5734 5736 5737 5738 5739 5740 5741 5743 5744 5745 5746 5748 5749 5750 5752 5753 5754 5755 5757 5758 5759 5760 5761 5762 5763 5764 5765 5766 5767 5768 5768 5768 5769 5770 5770 5770 5771 5771 5771 5771 5771 5771 5771 5770 5770 5770 5769 5768 5767 5766 5765 5766 5766 5766 5766 5766 5765 5764 5763 5763 5762 5761 5760 5758 5757 5755 5753 5752 5750 5748 5747 5745 5744 5742 5741 5739 5737 5736 5734 5733 5731 5729 5727 5725 5723 5721 5719 5717 5715 5713 5711 5709 5707 5705 5703 5701 5698 5697